(480394) = 2003 TO48 = 2015 KX51

Discovered at Kitt Peak on 2003-10-03 by Spacewatch.

Orbit

Orbit type: Main Belt

Note: WebGL enabled browser required.

epoch2023-02-25.0
epoch JD2460000.5
perihelion date2020-01-26.00138
perihelion JD2458874.50138
argument of perihelion (°)36.50544
ascending node (°)250.28912
inclination (°)13.30109
eccentricity0.1537072
perihelion distance (AU)2.2539412
Tisserand w.r.t. Jupiter3.3
ΔV w.r.t. Earth (km/sec)10.3
semimajor axis (AU)2.6633111
mean anomaly (°)255.33412
mean daily motion (°/day)0.22676240
aphelion distance (AU)3.073
period (years)4.35
P-vector [x]0.27391756
P-vector [y]-0.92785312
P-vector [z]-0.25309636
Q-vector [x]0.93704798
Q-vector [y]0.19820996
Q-vector [z]0.28749591
absolute magnitude16.82
phase slope0.15
uncertainty0
referenceMPEC 2023-F215
observations used190
oppositions10
arc length (days)7115
first opposition used2003
last opposition used2023
residual rms (arc-secs)0.80
perturbers coarse indicatorM-v
perturbers precise indicator003Ek
first observation date used2003-10-03.0
last observation date used2023-03-27.0
computer nameMPCLINUX
JD of orbit computation2457700.267403
perihelion JD uncertainty (days)7.3935E-05
argument of perihelion uncertainty (°)2.3752E-05
ascending node uncertainty (°)1.3503E-05
inclination uncertainty (°)5.8055E-06
eccentricity uncertainty 4.6344E-08
perihelion distance uncertainty (AU)1.2509E-07
Minimum Orbit Intersection Distances (in AU)
for orbit epoch: 2460000.5, reference: E2023-FA2
Mercury1.80735
Venus1.53863
Earth1.25095
Mars0.81076
Jupiter2.07523
Saturn6.01763
Uranus15.6181
Neptune26.9982

Observations

192 total observations over interval: 2003 10 03.36415 – 2023 03 27.373752
These data are available for download (format description).

Date (UT) J2000 RA J2000 Dec Magn Location Ref
2003 10 03.36415 02 40 12.93 +28 02 56.2 22.0 V 691 – Steward Observatory, Kitt Peak-Spacewatch MPS 109853
2003 10 03.39226 02 40 11.89 +28 02 50.7 21.8 V 691 – Steward Observatory, Kitt Peak-Spacewatch MPS 109853
2003 10 03.41894 02 40 10.89 +28 02 45.3 21.6 V 691 – Steward Observatory, Kitt Peak-Spacewatch MPS 109853
2003 10 22.34666 02 25 34.95 +26 23 35.3 21.2 V 691 – Steward Observatory, Kitt Peak-Spacewatch MPS 109853
2003 10 22.37339 02 25 33.44 +26 23 23.9 21.4 V 691 – Steward Observatory, Kitt Peak-Spacewatch MPS 109853
2003 10 22.40408 02 25 31.77 +26 23 10.7 21.4 V 691 – Steward Observatory, Kitt Peak-Spacewatch MPS 109853
2012 11 06.26831 04 36 29.45 +24 53 07.4 21.0 V 691 – Steward Observatory, Kitt Peak-Spacewatch MPS 623331
2012 11 06.28601 04 36 28.52 +24 53 02.7 20.8 V 691 – Steward Observatory, Kitt Peak-Spacewatch MPS 623331
2012 11 06.30370 04 36 27.70 +24 52 57.5 20.9 V 691 – Steward Observatory, Kitt Peak-Spacewatch MPS 623331
2012 11 24.22942 04 20 01.82 +23 13 30.8 20.7 V 691 – Steward Observatory, Kitt Peak-Spacewatch MPS 623331
2012 11 24.24712 04 20 00.75 +23 13 24.4 20.8 V 691 – Steward Observatory, Kitt Peak-Spacewatch MPS 623331
2012 11 24.26482 04 19 59.67 +23 13 17.8 20.6 V 691 – Steward Observatory, Kitt Peak-Spacewatch MPS 623331
2012 12 08.25850 04 06 32.47 +21 44 53.5 20.3 V G96 – Mt. Lemmon Survey MPS 623331
2012 12 08.26374 04 06 32.18 +21 44 51.5 20.4 V G96 – Mt. Lemmon Survey MPS 623331
2012 12 08.26896 04 06 31.89 +21 44 49.4 20.5 V G96 – Mt. Lemmon Survey MPS 623331
2012 12 08.27428 04 06 31.60 +21 44 47.4 20.7 V G96 – Mt. Lemmon Survey MPS 623331
2014 01 31.46395 09 21 03.044 -03 49 04.60 21.3 w F51 – Pan-STARRS 1, Haleakala MPS 623331
2014 01 31.47693 09 21 02.360 -03 49 03.79 20.8 w F51 – Pan-STARRS 1, Haleakala MPS 623331
2014 01 31.50282 09 21 00.950 -03 49 01.46 21.1 w F51 – Pan-STARRS 1, Haleakala MPS 623331
2014 02 24.34148 09 00 05.044 -02 34 21.83 21.1 w F51 – Pan-STARRS 1, Haleakala MPS 623331
2014 02 24.35307 09 00 04.481 -02 34 18.61 21.1 w F51 – Pan-STARRS 1, Haleakala MPS 623331
2014 02 24.37619 09 00 03.342 -02 34 12.05 21.0 w F51 – Pan-STARRS 1, Haleakala MPS 623331
2015 05 20.44216 16 55 53.754 -23 29 11.53 19.8 w F51 – Pan-STARRS 1, Haleakala MPS 608783
2015 05 20.46639 16 55 52.520 -23 28 59.68 19.6 w F51 – Pan-STARRS 1, Haleakala MPS 608783
2015 05 20.47847 16 55 51.900 -23 28 53.74 19.6 w F51 – Pan-STARRS 1, Haleakala MPS 608783
2015 05 21.43768 16 55 05.442 -23 20 59.66 19.9 w F51 – Pan-STARRS 1, Haleakala MPS 608783
2015 05 21.44974 16 55 04.814 -23 20 53.74 19.8 w F51 – Pan-STARRS 1, Haleakala MPS 608783
2015 05 21.47399 16 55 03.555 -23 20 41.59 19.7 w F51 – Pan-STARRS 1, Haleakala MPS 608783
2015 06 07.30368 16 39 58.97 -20 51 24.7 19.2 V G96 – Mt. Lemmon Survey MPS 623331
2015 06 07.31416 16 39 58.37 -20 51 19.0 18.1 V G96 – Mt. Lemmon Survey MPS 623331
2015 06 07.31940 16 39 58.01 -20 51 16.1 18.6 V G96 – Mt. Lemmon Survey MPS 623331
2015 06 11.36600 16 36 20.261 -20 14 18.07 19.7 w F51 – Pan-STARRS 1, Haleakala MPS 623331
2015 06 11.37809 16 36 19.585 -20 14 11.59 19.7 w F51 – Pan-STARRS 1, Haleakala MPS 623331
2015 06 11.39016 16 36 18.917 -20 14 04.98 19.6 w F51 – Pan-STARRS 1, Haleakala MPS 623331
2015 06 11.40225 16 36 18.244 -20 13 58.36 19.6 w F51 – Pan-STARRS 1, Haleakala MPS 623331
2015 06 21.24464 16 28 21.82 -18 47 28.0 19.7 V G96 – Mt. Lemmon Survey MPS 623331
2015 06 21.24932 16 28 21.63 -18 47 25.7 19.7 V G96 – Mt. Lemmon Survey MPS 623331
2015 06 21.25403 16 28 21.41 -18 47 23.5 19.6 V G96 – Mt. Lemmon Survey MPS 623331
2015 06 21.25871 16 28 21.19 -18 47 21.0 19.9 V G96 – Mt. Lemmon Survey MPS 623331
2015 07 09.35041 16 19 37.528 -16 37 18.92 20.0 w F51 – Pan-STARRS 1, Haleakala MPS 623331
2015 07 09.36231 16 19 37.337 -16 37 14.79 20.0 w F51 – Pan-STARRS 1, Haleakala MPS 623331
2015 07 09.37414 16 19 37.152 -16 37 10.64 20.0 w F51 – Pan-STARRS 1, Haleakala MPS 623331
2015 07 09.38601 16 19 36.964 -16 37 06.53 20.0 w F51 – Pan-STARRS 1, Haleakala MPS 623331
2015 07 12.35340 16 19 05.139 -16 20 38.56 20.7 w F51 – Pan-STARRS 1, Haleakala MPS 623331
2015 07 12.37686 16 19 04.884 -16 20 30.99 20.8 w F51 – Pan-STARRS 1, Haleakala MPS 623331
2015 07 12.38875 16 19 04.770 -16 20 27.08 20.7 w F51 – Pan-STARRS 1, Haleakala MPS 623331
2015 08 09.29602 16 26 57.505 -14 53 29.48 20.6 w F51 – Pan-STARRS 1, Haleakala MPS 619870
2015 08 09.30812 16 26 57.959 -14 53 28.19 20.6 w F51 – Pan-STARRS 1, Haleakala MPS 619870
2015 08 09.32006 16 26 58.411 -14 53 27.41 20.5 w F51 – Pan-STARRS 1, Haleakala MPS 619870
2015 08 10.27697 16 27 37.551 -14 52 20.29 20.6 w F51 – Pan-STARRS 1, Haleakala MPS 619870
2015 08 10.28890 16 27 38.031 -14 52 19.45 20.6 w F51 – Pan-STARRS 1, Haleakala MPS 619870
2015 08 10.30082 16 27 38.501 -14 52 18.58 20.6 w F51 – Pan-STARRS 1, Haleakala MPS 619870
2015 08 10.31273 16 27 38.975 -14 52 17.82 20.7 w F51 – Pan-STARRS 1, Haleakala MPS 619870
2016 09 27.40036 02 24 00.96 +27 59 23.6 21.4 V G96 – Mt. Lemmon Survey MPS 730777
2016 09 27.40890 02 24 00.62 +27 59 22.3 21.1 V G96 – Mt. Lemmon Survey MPS 730777
2016 09 27.41749 02 24 00.28 +27 59 20.3 22.0 V G96 – Mt. Lemmon Survey MPS 730777
2016 09 27.42614 02 23 59.91 +27 59 19.4 20.8 V G96 – Mt. Lemmon Survey MPS 730777
2016 10 05.42082 02 18 51.44 +27 30 11.7 20.7 V G96 – Mt. Lemmon Survey MPS 732445
2016 10 05.42510 02 18 51.21 +27 30 10.8 20.3 V G96 – Mt. Lemmon Survey MPS 732445
2016 10 05.42939 02 18 51.00 +27 30 09.4 20.4 V G96 – Mt. Lemmon Survey MPS 732445
2016 10 05.43367 02 18 50.81 +27 30 08.1 20.6 V G96 – Mt. Lemmon Survey MPS 732445
2016 10 05.45953 02 18 49.63 +27 30 00.8 20.6 V G96 – Mt. Lemmon Survey MPS 732445
2016 10 05.46241 02 18 49.49 +27 29 59.3 20.3 V G96 – Mt. Lemmon Survey MPS 732445
2016 10 05.46528 02 18 49.42 +27 29 59.0 20.4 V G96 – Mt. Lemmon Survey MPS 732445
2016 10 05.46817 02 18 49.28 +27 29 58.8 20.0 V G96 – Mt. Lemmon Survey MPS 732445
2016 10 06.41924 02 18 07.34 +27 25 32.8 20.8 V G96 – Mt. Lemmon Survey MPS 732446
2016 10 06.42589 02 18 07.06 +27 25 30.8 20.5 V G96 – Mt. Lemmon Survey MPS 732446
2016 10 06.43261 02 18 06.71 +27 25 29.2 20.7 V G96 – Mt. Lemmon Survey MPS 732446
2016 10 06.43781 02 18 06.45 +27 25 27.6 20.9 V G96 – Mt. Lemmon Survey MPS 732446
2016 10 06.44547 02 18 06.12 +27 25 25.3 20.9 V G96 – Mt. Lemmon Survey MPS 732446
2016 10 06.44917 02 18 05.89 +27 25 24.1 20.7 V G96 – Mt. Lemmon Survey MPS 732446
2016 10 06.45484 02 18 05.57 +27 25 19.4 20.5 V G96 – Mt. Lemmon Survey MPS 732446
2016 10 08.39731 02 16 37.206 +27 15 41.10 20.8 w F51 – Pan-STARRS 1, Haleakala MPS 734429
2016 10 08.40858 02 16 36.661 +27 15 37.58 20.9 w F51 – Pan-STARRS 1, Haleakala MPS 734429
2016 10 08.41991 02 16 36.109 +27 15 34.12 20.8 w F51 – Pan-STARRS 1, Haleakala MPS 734429
2016 10 08.43131 02 16 35.554 +27 15 30.61 20.7 w F51 – Pan-STARRS 1, Haleakala MPS 734429
2016 10 21.24806 02 05 38.85 +25 51 27.2 20.3 V G96 – Mt. Lemmon Survey MPS 737610
2016 10 21.25234 02 05 38.65 +25 51 25.5 20.2 V G96 – Mt. Lemmon Survey MPS 737610
2016 10 21.25661 02 05 38.47 +25 51 22.6 20.2 V G96 – Mt. Lemmon Survey MPS 737610
2016 10 21.26091 02 05 38.22 +25 51 20.8 20.2 V G96 – Mt. Lemmon Survey MPS 737610
2016 11 02.15846 01 55 03.28 +24 08 29.5 20.6 V G96 – Mt. Lemmon Survey MPS 739955
2016 11 02.16333 01 55 03.00 +24 08 27.5 20.4 V G96 – Mt. Lemmon Survey MPS 739955
2016 11 02.16821 01 55 02.80 +24 08 24.3 21.0 V G96 – Mt. Lemmon Survey MPS 739955
2016 11 02.17305 01 55 02.51 +24 08 22.0 20.4 V G96 – Mt. Lemmon Survey MPS 739955
2016 11 05.63023 01 52 10.14 +23 35 47.0 20.4 R D29 – Purple Mountain Observatory, XuYi Station MPS 742274
2016 11 05.66028 01 52 08.63 +23 35 30.0 20.5 R D29 – Purple Mountain Observatory, XuYi Station MPS 742274
2016 11 07.16520 01 50 56.95 +23 21 07.6 20.8 V G96 – Mt. Lemmon Survey MPS 742274
2016 11 07.16949 01 50 56.76 +23 21 04.9 19.9 V G96 – Mt. Lemmon Survey MPS 742274
2016 11 07.17377 01 50 56.55 +23 21 02.8   G96 – Mt. Lemmon Survey MPS 742274
2016 11 07.17811 01 50 56.45 +23 20 58.9   G96 – Mt. Lemmon Survey MPS 742274
2016 11 24.19831 01 40 24.65 +20 40 57.5 20.8 V G96 – Mt. Lemmon Survey MPS 747454
